Content
SEND FEEDBACK

Daily
Averages
Monthly
Summary
United States of America

SKIATOOK, OKLAHOMA


Home > North America > United States > Oklahoma
Elevation: 660 feet     Latitude: 36 22N     Longitude: 096 00W

WEATHER
 
SELECT A DAY
Number of Records: 195,682;   Date Range: 1/1/95 - 10/21/14
 
SHARE

PRINT THIS DATA

[ ← Previous Day ]
WEATHER ALMANAC - JANUARY 31, 2013
[ Next Day → ]
[ °C ]   °F
Weather ElementAverageHighLow
Temperature32.9 °F48.9 °F (12:53 pm)21.9 °F (11:53 pm)
Dewpoint21.1 °F27 °F (11:53 am)10.9 °F (10:53 pm)
Humidity63.4 %84 % (3:53 am)43 % (12:53 pm)
Barometer30.22 in30.50 in (9:53 pm)30.04 in (4:53 am)
Wind Speed9.8 mph20.7 mph (3:53 pm)
Wind Gust29.9 mph (3:53 pm)
Weather ElementAverage
Visibility9.7 mi
Wind DirectionSSE (160.4 °)

Weather ElementTotal
Precipitation---
Heating Degree Days29.6 (Base 65)
Averaged from 23 records on January 31, 2013
WEATHER CONDITIONS BREAKOUT
WIND DIRECTION BREAKOUT
WEATHER BY HOUR - JANUARY 31, 2013
[ °C ]   °F
Local TimeTemperatureDewpointHumidityBarometerVisibilityWind DirectionWind SpeedGust SpeedPrecipitationEventsConditions
1:53 AM28.9 °F23.0 °F78 %30.05 in8.0 miSouth (180°)6.9 mphClear
2:53 AM28.0 °F23.0 °F81 %30.06 in9.0 miSouth (170°)3.5 mphClear
3:53 AM26.1 °F21.9 °F84 %30.05 in8.0 miSE (130°)3.5 mphClear
4:53 AM28.0 °F23.0 °F81 %30.04 in9.0 miSSE (160°)5.8 mphClear
5:53 AM28.0 °F21.9 °F78 %30.04 in10.0 miSSE (160°)6.9 mphClear
6:53 AM28.0 °F21.9 °F78 %30.06 in10.0 miSouth (190°)4.6 mphClear
7:53 AM30.0 °F23.0 °F75 %30.07 in10.0 miSouth (190°)5.8 mphClear
8:53 AM34.0 °F25.0 °F70 %30.11 in10.0 miCalmPartly Cloudy
9:53 AM41.0 °F24.1 °F51 %30.12 in10.0 miWest (270°)4.6 mphPartly Cloudy
10:53 AM45.0 °F26.1 °F48 %30.15 in10.0 miNNW (330°)10.4 mphPartly Cloudy
11:53 AM48.0 °F27.0 °F44 %30.15 in10.0 miNorth (350°)15.0 mphPartly Cloudy
12:53 PM48.9 °F27.0 °F43 %30.15 in10.0 miNorth (360°)11.5 mph21.9 mphPartly Cloudy
1:53 PM46.0 °F27.0 °F47 %30.18 in10.0 miNorth (10°)19.6 mphPartly Cloudy
2:53 PM41.0 °F25.0 °F53 %30.23 in10.0 miNorth (10°)18.4 mph27.6 mphPartly Cloudy
3:53 PM37.9 °F24.1 °F57 %30.26 in10.0 miNNE (20°)20.7 mph29.9 mphScattered Clouds
4:53 PM34.0 °F21.9 °F61 %30.30 in10.0 miNorth (10°)20.7 mph27.6 mphScattered Clouds
5:53 PM30.0 °F21.0 °F69 %30.35 in10.0 miNorth (10°)10.4 mphScattered Clouds
6:53 PM28.9 °F17.1 °F61 %30.39 in10.0 miNorth (360°)11.5 mphPartly Cloudy
7:53 PM27.0 °F14.0 °F58 %30.45 in10.0 miNorth (360°)10.4 mphClear
8:53 PM26.1 °F12.9 °F58 %30.48 in10.0 miNorth (360°)8.1 mphClear
9:53 PM25.0 °F12.9 °F60 %30.50 in10.0 miNNE (20°)8.1 mphClear
10:53 PM24.1 °F10.9 °F57 %30.48 in10.0 miNNE (20°)11.5 mph18.4 mphClear
11:53 PM21.9 °F12.0 °F66 %30.48 in10.0 miNNE (20°)8.1 mphClear
Hourly data recorded from KTUL, located miles away from Skiatook, Oklahoma







STORIES FROM OUR PARTNERS